Torna al catalogo

COSMOS 2251 DEB

AttivoLEO
NORAD 33837·DEBRIS·🇷🇺 Russia

Lanciato Jun 16, 1993 da Plesetsk Cosmodrome

Loading…

Prossimi Passaggi (prossime 24 ore)

TLE

AggiornatoSource: Space-Track

Epoca: Sep 14, 2026, 08:33 UTC

1 33837U 93036CE  26257.35661542  .00000546  00000-0  14374-3 0  9996
2 33837  74.0094 256.4605 0032853  48.7313 311.6669 14.51178218927935

Traccia COSMOS 2251 DEB in tempo reale con AllMySat

Download on the App Store